TimeCDT,TemperatureF,Dew PointF,Humidity,Sea Level PressureIn,VisibilityMPH,Wind Direction,Wind SpeedMPH,Gust SpeedMPH,PrecipitationIn,Events,Conditions,WindDirDegrees,DateUTC
12:53 AM,50.0,45.0,83,30.03,10.0,SSE,10.4,-,N/A,,Overcast,150,2012-10-13 05:53:00
1:53 AM,51.1,46.0,83,30.01,10.0,SSE,6.9,-,N/A,,Overcast,150,2012-10-13 06:53:00
2:53 AM,52.0,46.9,83,29.96,10.0,SE,10.4,-,N/A,,Overcast,140,2012-10-13 07:53:00
3:53 AM,52.0,46.9,83,29.94,10.0,SE,6.9,-,N/A,,Overcast,140,2012-10-13 08:53:00
4:53 AM,52.0,48.0,86,29.91,10.0,SE,9.2,-,N/A,,Overcast,140,2012-10-13 09:53:00
5:02 AM,51.8,48.2,88,29.92,9.0,SSE,10.4,-,N/A,Thunderstorm,Thunderstorm,160,2012-10-13 10:02:00
5:36 AM,51.8,48.2,88,29.89,10.0,SE,8.1,-,0.02,,Overcast,140,2012-10-13 10:36:00
5:53 AM,52.0,48.9,89,29.90,10.0,SSE,9.2,-,0.02,,Overcast,150,2012-10-13 10:53:00
6:09 AM,51.8,50.0,94,29.90,8.0,SSE,5.8,-,N/A,Thunderstorm,Thunderstorm,160,2012-10-13 11:09:00
6:53 AM,53.1,51.1,93,29.90,3.0,South,12.7,-,0.10,Rain-Thunderstorm,Thunderstorms and Rain,170,2012-10-13 11:53:00
7:03 AM,53.6,51.8,94,29.91,3.0,South,11.5,17.3,0.04,Rain-Thunderstorm,Rain,180,2012-10-13 12:03:00
7:11 AM,53.6,51.8,94,29.90,3.0,South,10.4,-,0.07,Rain,Rain,180,2012-10-13 12:11:00
7:22 AM,53.6,53.6,100,29.90,3.0,South,11.5,-,0.12,Rain,Rain,170,2012-10-13 12:22:00
7:44 AM,53.6,53.6,100,29.85,3.0,SE,5.8,-,0.18,Rain,Rain,130,2012-10-13 12:44:00
7:53 AM,54.0,54.0,100,29.85,4.0,SSE,6.9,-,0.18,Rain,Light Rain,150,2012-10-13 12:53:00
8:11 AM,53.6,-9999,N/A,29.84,4.0,SE,12.7,-,0.00,,Haze,140,2012-10-13 13:11:00
8:36 AM,55.4,-9999,N/A,29.87,7.0,South,10.4,-,0.00,,Overcast,170,2012-10-13 13:36:00
8:53 AM,55.9,-9999,N/A,29.86,8.0,South,10.4,-,0.00,,Overcast,170,2012-10-13 13:53:00
9:53 AM,60.1,-9999,N/A,29.84,10.0,South,16.1,24.2,N/A,,Overcast,180,2012-10-13 14:53:00
10:53 AM,61.0,59.0,93,29.81,6.0,South,17.3,24.2,0.00,Rain,Light Rain,170,2012-10-13 15:53:00
11:53 AM,61.0,60.1,97,29.79,7.0,South,15.0,24.2,0.00,,Overcast,170,2012-10-13 16:53:00
12:53 PM,64.9,62.1,90,29.75,5.0,South,15.0,23.0,N/A,,Overcast,170,2012-10-13 17:53:00
1:53 PM,66.9,63.0,87,29.72,5.0,SSE,11.5,-,N/A,,Overcast,160,2012-10-13 18:53:00
2:19 PM,69.8,64.4,83,29.72,5.0,South,12.7,-,N/A,,Haze,190,2012-10-13 19:19:00
3:11 PM,73.4,64.4,73,29.70,10.0,SSW,15.0,-,N/A,,Mostly Cloudy,210,2012-10-13 20:11:00
3:53 PM,73.9,63.0,68,29.68,10.0,SSW,16.1,24.2,N/A,,Mostly Cloudy,210,2012-10-13 20:53:00
4:53 PM,73.9,63.0,68,29.68,10.0,South,10.4,17.3,N/A,,Overcast,190,2012-10-13 21:53:00
5:53 PM,72.0,64.0,76,29.68,10.0,South,12.7,-,N/A,,Mostly Cloudy,190,2012-10-13 22:53:00
6:44 PM,69.8,64.4,83,29.70,10.0,South,11.5,20.7,N/A,,Overcast,190,2012-10-13 23:44:00
7:08 PM,68.0,64.4,88,29.70,10.0,South,12.7,-,N/A,,Overcast,190,2012-10-14 00:08:00
7:53 PM,66.9,64.9,93,29.68,8.0,SSW,8.1,-,N/A,,Overcast,200,2012-10-14 00:53:00
8:45 PM,66.2,64.4,94,29.69,7.0,South,8.1,-,N/A,,Overcast,180,2012-10-14 01:45:00
9:53 PM,66.0,64.0,93,29.67,8.0,South,3.5,-,N/A,,Mostly Cloudy,180,2012-10-14 02:53:00
10:06 PM,66.2,64.4,94,29.68,8.0,SSE,3.5,-,N/A,,Overcast,160,2012-10-14 03:06:00
10:53 PM,64.9,64.0,97,29.65,8.0,West,3.5,-,N/A,,Overcast,280,2012-10-14 03:53:00
11:32 PM,64.4,64.4,100,29.65,5.0,SE,3.5,-,0.05,Rain-Thunderstorm,Light Rain,130,2012-10-14 04:32:00